Muscatine, IA

8:26 AM CST on December 13, 2019 (GMT -0600)
Muscatine Municipal

Weather History for KMUT - October, 2019

Change the Weather History Date:

Sunday, October 20, 2019

  Actual Average Record
Temperature  
Mean Temperature 54 °F -  
Max Temperature 68 °F 63 °F 85 °F (1953)
Min Temperature 41 °F 40 °F 20 °F (1952)
Degree Days  
Heating Degree Days 10    
Growing Degree Days 4 (Base 50)    
Moisture  
Dew Point 44 °F    
Average Humidity 80    
Maximum Humidity 100    
Minimum Humidity 32    
Precipitation  
Precipitation 0.00 in - - ()
Sea Level Pressure  
Sea Level Pressure 29.86 in    
Wind  
Wind Speed 3 mph (SE)    
Max Wind Speed 13 mph    
Max Gust Speed 17 mph    
Visibility 5 miles    
Events Fog    
Averages and records for this station are not official NWS values.
T = Trace of Precipitation, MM = Missing Value Source: NWS Daily Summary

Daily Weather History Graph

Daily Weather History Graph

Search for Another Location

Airport or City:

Astronomy

Oct. 20, 2019 Rise Set
Actual Time 7:21 AM CDT 6:16 PM CDT
Civil Twilight 6:53 AM CDT 6:44 PM CDT
Nautical Twilight 6:21 AM CDT 7:16 PM CDT
Astronomical Twilight 5:49 AM CDT 7:48 PM CDT
Moon 11:22 PM CDT (10/20) 1:52 PM CDT (10/20)
Length of Visible Light 11h 50m
Length of Day
10h 54m
Waning Gibbous, 59% of the Moon is Illuminated
Oct 20
Waning Gibbous
Oct 21
Last Quarter
Oct 27
New
Nov 4
First Quarter
Nov 12
Full

Hourly Weather History & Observations

Time (CDT) Temp. Windchill Dew Point Humidity Pressure Visibility Wind Dir Wind Speed Gust Speed Precip Events Conditions
12:15 AM 46.4 °F 44.3 °F 46.4 °F 100% 29.82 in 0.2 mi South 4.6 mph - N/A Fog Fog
12:35 AM 44.6 °F 42.2 °F 44.6 °F 100% 29.81 in 0.2 mi South 4.6 mph - N/A Fog Fog
12:55 AM 44.6 °F 42.2 °F 44.6 °F 100% 29.81 in 0.2 mi SSW 4.6 mph - N/A Fog Fog
1:15 AM 42.8 °F - 42.8 °F 100% 29.82 in 0.2 mi Calm Calm - N/A Fog Fog
1:35 AM 42.8 °F - 41.0 °F 93% 29.83 in 0.2 mi Calm Calm - N/A Fog Fog
1:55 AM 41.0 °F - 41.0 °F 100% 29.83 in 0.2 mi Calm Calm - N/A Fog Fog
2:15 AM 42.8 °F - 41.0 °F 93% 29.83 in 0.2 mi Calm Calm - N/A Fog Fog
2:35 AM 42.8 °F - 42.8 °F 100% 29.84 in 0.2 mi Calm Calm - N/A Fog Fog
2:55 AM 42.8 °F - 41.0 °F 93% 29.84 in 0.2 mi Calm Calm - N/A Fog Fog
3:15 AM 41.0 °F - 41.0 °F 100% 29.84 in 0.2 mi Calm Calm - N/A Fog Fog
3:35 AM 41.0 °F - 41.0 °F 100% 29.84 in 0.2 mi Calm Calm - N/A Fog Fog
4:15 AM 42.8 °F - 42.8 °F 100% 29.85 in 0.2 mi Calm Calm - N/A Fog Fog
4:35 AM 42.8 °F - 42.8 °F 100% 29.85 in 0.2 mi Calm Calm - N/A Fog Fog
4:55 AM 42.8 °F - 42.8 °F 100% 29.86 in 0.2 mi Calm Calm - N/A Fog Fog
5:15 AM 42.8 °F - 42.8 °F 100% 29.86 in 0.2 mi Calm Calm - N/A Fog Fog
5:35 AM 42.8 °F - 42.8 °F 100% 29.87 in 0.2 mi Calm Calm - N/A Fog Fog
5:55 AM 42.8 °F - 42.8 °F 100% 29.88 in 0.2 mi Calm Calm - N/A Fog Fog
6:15 AM 42.8 °F - 42.8 °F 100% 29.88 in 0.2 mi Calm Calm - N/A Fog Fog
6:35 AM 42.8 °F - 42.8 °F 100% 29.89 in 0.2 mi Calm Calm - N/A Fog Fog
6:55 AM 42.8 °F - 42.8 °F 100% 29.89 in 0.2 mi Calm Calm - N/A Fog Fog
7:15 AM 41.0 °F - 41.0 °F 100% 29.89 in 0.2 mi Calm Calm - N/A Fog Fog
7:35 AM 42.8 °F - 42.8 °F 100% 29.90 in 0.2 mi Calm Calm - N/A Fog Fog
7:55 AM 42.8 °F - 42.8 °F 100% 29.90 in 0.2 mi Calm Calm - N/A   Overcast
8:15 AM 42.8 °F - 42.8 °F 100% 29.90 in 0.2 mi Calm Calm - N/A Fog Fog
8:35 AM 44.6 °F - 44.6 °F 100% 29.92 in 0.2 mi Calm Calm - N/A Fog Fog
8:55 AM 44.6 °F - 44.6 °F 100% 29.92 in 0.2 mi Calm Calm - N/A Fog Fog
9:15 AM 44.6 °F 42.2 °F 44.6 °F 100% 29.93 in 0.2 mi SE 4.6 mph - N/A Fog Fog
9:35 AM 44.6 °F 43.1 °F 44.6 °F 100% 29.93 in 0.2 mi Variable 3.5 mph - N/A Fog Fog
9:55 AM 44.6 °F 42.2 °F 44.6 °F 100% 29.93 in 0.2 mi SSE 4.6 mph - N/A Fog Fog
10:15 AM 46.4 °F 44.3 °F 46.4 °F 100% 29.93 in 0.2 mi ESE 4.6 mph - N/A Fog Fog
10:35 AM 46.4 °F 42.9 °F 46.4 °F 100% 29.93 in 0.2 mi SE 6.9 mph - N/A Fog Fog
10:55 AM 48.2 °F - 48.2 °F 100% 29.93 in 0.2 mi SE 5.8 mph - N/A Fog Fog
11:15 AM 48.2 °F - 48.2 °F 100% 29.93 in 0.2 mi SSE 5.8 mph - N/A Fog Fog
11:35 AM 50.0 °F - 50.0 °F 100% 29.94 in 0.8 mi SE 6.9 mph - N/A   Overcast
11:55 AM 50.0 °F - 50.0 °F 100% 29.94 in 1.8 mi Variable 3.5 mph - N/A   Mist
12:15 PM 50.0 °F - 50.0 °F 100% 29.94 in 5.0 mi South 6.9 mph - N/A   Mist
12:35 PM 51.8 °F - 51.8 °F 100% 29.93 in 7.0 mi South 5.8 mph - N/A   Overcast
12:55 PM 51.8 °F - 51.8 °F 100% 29.92 in 10.0 mi ESE 5.8 mph - N/A   Overcast
1:15 PM 53.6 °F - 51.8 °F 94% 29.91 in 10.0 mi SE 6.9 mph - N/A   Overcast
1:35 PM 55.4 °F - 51.8 °F 88% 29.91 in 10.0 mi ESE 5.8 mph - N/A   Overcast
1:55 PM 57.2 °F - 51.8 °F 82% 29.90 in 10.0 mi SSE 6.9 mph - N/A   Mostly Cloudy
2:15 PM 59.0 °F - 51.8 °F 77% 29.88 in 10.0 mi SSE 4.6 mph 12.7 mph N/A   Partly Cloudy
2:35 PM 59.0 °F - 51.8 °F 77% 29.88 in 10.0 mi ESE 4.6 mph - N/A   Clear
2:55 PM 60.8 °F - 50.0 °F 68% 29.87 in 10.0 mi Variable 4.6 mph - N/A   Clear
3:15 PM 60.8 °F - 51.8 °F 72% 29.86 in 10.0 mi Variable 3.5 mph - N/A   Clear
3:35 PM 64.4 °F - 50.0 °F 59% 29.85 in 10.0 mi Calm Calm - N/A   Clear
3:55 PM 66.2 °F - 37.4 °F 35% 29.84 in 10.0 mi SE 12.7 mph - N/A   Clear
4:15 PM 68.0 °F - 37.4 °F 33% 29.84 in 10.0 mi ESE 9.2 mph 17.3 mph N/A   Clear
4:35 PM 66.2 °F - 35.6 °F 32% 29.84 in 10.0 mi ESE 10.4 mph 16.1 mph N/A   Clear
4:55 PM 66.2 °F - 37.4 °F 35% 29.83 in 10.0 mi ESE 8.1 mph - N/A   Clear
5:15 PM 64.4 °F - 37.4 °F 37% 29.83 in 10.0 mi East 5.8 mph - N/A   Clear
5:35 PM 64.4 °F - 39.2 °F 40% 29.82 in 10.0 mi East 6.9 mph - N/A   Clear
5:55 PM 62.6 °F - 37.4 °F 39% 29.81 in 10.0 mi East 8.1 mph - N/A   Clear
6:15 PM 62.6 °F - 37.4 °F 39% 29.82 in 10.0 mi ESE 5.8 mph - N/A   Clear
6:35 PM 60.8 °F - 37.4 °F 42% 29.82 in 10.0 mi ESE 4.6 mph - N/A   Clear
6:55 PM 60.8 °F - 39.2 °F 45% 29.82 in 10.0 mi East 4.6 mph - N/A   Clear
7:15 PM 57.2 °F - 41.0 °F 55% 29.82 in 10.0 mi East 4.6 mph - N/A   Clear
7:35 PM 59.0 °F - 39.2 °F 48% 29.81 in 10.0 mi East 6.9 mph - N/A   Clear
7:55 PM 59.0 °F - 39.2 °F 48% 29.82 in 10.0 mi East 4.6 mph - N/A   Clear
8:15 PM 59.0 °F - 39.2 °F 48% 29.82 in 10.0 mi East 5.8 mph - N/A   Clear
8:35 PM 57.2 °F - 41.0 °F 55% 29.81 in 10.0 mi East 8.1 mph - N/A   Partly Cloudy
8:55 PM 57.2 °F - 41.0 °F 55% 29.80 in 10.0 mi East 9.2 mph - N/A   Mostly Cloudy
9:15 PM 59.0 °F - 41.0 °F 51% 29.81 in 10.0 mi ESE 6.9 mph - N/A   Partly Cloudy
9:35 PM 57.2 °F - 42.8 °F 59% 29.81 in 10.0 mi ESE 8.1 mph - N/A   Clear
9:55 PM 57.2 °F - 44.6 °F 63% 29.81 in 10.0 mi SE 10.4 mph - N/A   Clear
10:15 PM 57.2 °F - 46.4 °F 67% 29.80 in 10.0 mi SE 6.9 mph - N/A   Clear
10:35 PM 57.2 °F - 48.2 °F 72% 29.80 in 10.0 mi SE 8.1 mph 13.8 mph N/A   Clear
10:55 PM 57.2 °F - 50.0 °F 77% 29.79 in 10.0 mi SE 5.8 mph - N/A   Mostly Cloudy
11:15 PM 57.2 °F - 48.2 °F 72% 29.77 in 10.0 mi ESE 8.1 mph - N/A   Overcast
11:35 PM 55.4 °F - 50.0 °F 82% 29.75 in 10.0 mi ESE 6.9 mph - N/A   Overcast
11:55 PM 55.4 °F - 50.0 °F 82% 29.74 in 10.0 mi SE 5.8 mph - N/A   Overcast